This demonstration page uses our WeatherBlox Daily Observations layout. Learn more.

Left ArrowRight Arrow

34.74481, -87.66753

Hourly Observations for October 26, 2019

Temp ( °F °C ) Dew Point ( °F °C ) Humidity (%) Winds ( mph kmh ) Pressure ( in mb ) Visibility ( mi km ) Precip ( " mm )
12:16 am 00:16 Cloudy with Heavy Rain 62 16.7 60 15.6 93 93 E 10 17 29.91 1013 4 6 0.07 1.78
12:53 am 00:53 Cloudy with Rain 63 17.2 60 15.6 90 90 E 10 17 29.91 1013 6 10 0.15 3.81
1:05 am 01:05 Cloudy with Rain 63 17.2 61 16.1 93 93 E 10 17 29.88 1012 6 10 0.02 0.51
1:53 am 01:53 Cloudy with Light Rain 63 17.2 61 16.1 93 93 E 7 11 29.89 1012 9 14 0.07 1.78
2:53 am 02:53 Cloudy with Light Rain 63 17.2 61 16.1 93 93 ESE 8 13 29.85 1011 10 16 0.02 0.51
3:53 am 03:53 Cloudy with Rain 65 18.3 62 16.7 90 90 ESE 10 17 29.81 1009 6 10 0.04 1.02
4:03 am 04:03 Cloudy with Light Rain 65 18.3 63 17.2 93 93 SE 8 13 29.83 1010 7 11 0.01 0.25
4:53 am 04:53 Cloudy with Light Rain 67 19.4 65 18.3 93 93 SE 8 13 29.79 1009 10 16 0.13 3.30
4:57 am 04:57 Cloudy with Light Rain 67 19.4 65 18.3 93 93 SE 8 13 29.80 1009 10 16 0.00 0.00
5:44 am 05:44 Cloudy with Light Rain 67 19.4 65 18.3 93 93 ESE 8 13 29.80 1009 10 16 0.05 1.27
5:53 am 05:53 Cloudy with Light Rain 67 19.4 65 18.3 93 93 E 6 9 29.77 1008 10 16 0.05 1.27
6:53 am 06:53 Cloudy 71 21.7 68 20 90 90 SE 12 19 29.73 1007 10 16 0.00 0.00
7:53 am 07:53 Cloudy 72 22.2 68 20 87 87 SSE 15 24 29.72 1007 10 16 0.00 0.00
8:53 am 08:53 Cloudy 73 22.8 68 20 84 84 SE 17 28 29.71 1006 10 16 0.02 0.51
9:53 am 09:53 Cloudy with Light Rain 73 22.8 68 20 84 84 SSE 14 22 29.70 1006 10 16 0.00 0.00
10:53 am 10:53 Cloudy 74 23.3 68 20 82 82 SSE 20 31 29.65 1004 10 16 0.01 0.25
11:53 am 11:53 Cloudy 75 23.9 69 20.6 82 82 SSE 31 50 29.61 1003 10 16 0.00 0.00
12:53 pm 12:53 Cloudy 76 24.4 68 20 77 77 SSE 24 39 29.60 1002 10 16 0.00 0.00
1:45 pm 13:45 Cloudy with Light Rain 75 23.9 70 21.1 84 84 S 16 26 29.65 1004 9 14 0.03 0.76
1:53 pm 13:53 Cloudy with Light Rain 74 23.3 70 21.1 88 88 S 14 22 29.62 1003 10 16 0.03 0.76
2:07 pm 14:07 Cloudy 76 24.4 71 21.7 85 85 S 12 19 29.62 1003 10 16 0.00 0.00
2:16 pm 14:16 Cloudy 76 24.4 71 21.7 85 85 S 15 24 29.62 1003 10 16 0.00 0.00
2:53 pm 14:53 Cloudy 77 25 69 20.6 77 77 SW 15 24 29.61 1003 10 16 0.00 0.00
3:53 pm 15:53 Mostly Cloudy 77 25 67 19.4 71 71 SW 17 28 29.62 1003 10 16 0.00 0.00
4:53 pm 16:53 Mostly Sunny 74 23.3 63 17.2 69 69 SW 21 33 29.65 1004 10 16 0.00 0.00
5:53 pm 17:53 Partly Cloudy 68 20 60 15.6 76 76 WSW 18 30 29.70 1006 10 16 0.00 0.00
6:53 pm 18:53 Mostly Cloudy 65 18.3 58 14.4 78 78 W 24 39 29.74 1007 10 16 0.00 0.00
7:35 pm 19:35 Mostly Cloudy 62 16.7 56 13.3 80 80 W 21 33 29.77 1008 10 16 0.00 0.00
7:53 pm 19:53 Partly Cloudy 61 16.1 56 13.3 84 84 WSW 14 22 29.76 1008 10 16 0.00 0.00
8:53 pm 20:53 Mostly Clear 60 15.6 55 12.8 84 84 WSW 9 15 29.79 1009 10 16 0.00 0.00
9:53 pm 21:53 Clear 59 15 54 12.2 83 83 WSW 10 17 29.83 1010 10 16 0.00 0.00
10:53 pm 22:53 Cloudy 60 15.6 55 12.8 84 84 WSW 9 15 29.84 1011 10 16 0.00 0.00

Powered by AerisWeather